www.pogodaiklimat.ru

Погода и климат >> Архив погоды >> Россия >> Свердловская область >> Гари


ПОГОДА в Гарях

  • Прогноз погоды в Гарях
  • Монитор погоды в Гарях

АРХИВ ПОГОДЫ в Гарях

Время (UTC), дата Ветер
(напр.,м/с)
 
Видим.   Явления Облачность Т
(С)
Тd
(С)
f
(%)
Тe
(С)
Тes
(С)
Комфортность P
(гПа)
Po
(гПа)
Тmin
(С)
Tmax
(С)
R
(мм)
R24
(мм)
S
(см)
15 15.09 З 4 50 км 8/4 600 м
[Sc Ac und]
+18.0 +8.8 55 +18 +18 1003.6 988.4 +23.0
18 15.09 Ю 3
{10}
10 км {ливн. осадки} 9/3 600 м
[Cb calv Ac As]
+14.0 +8.4 69 +13 +13 1004.8 989.4
21 15.09 Ю 2 10 км 8/0
[Ac und]
+10.4 +6.3 76 +9 +9 1004.6 989.0
00 16.09 Ю 2 10 км 6/0
[Ac und]
+10.2 +7.3 82 +9 +9 1004.9 989.3
03 16.09 Ю 2 50 км 9/4 600 м
[Sc Ac und]
+8.8 +7.5 92 +7 +7 1004.7 989.0 +5.0 2
06 16.09 Ю 3 50 км 8/8 600 м
[Sc]
+10.2 +7.7 84 +8 +9 1004.1 988.5
09 16.09 ЮВ 4 50 км 6/6 600 м
[Cb calv]
+11.5 +6.9 73 +9 +11 1003.4 987.8
12 16.09 Ю 2 50 км {ливн. осадки} 4/4 600 м
[Cb calv]
+12.9 +4.6 57 +12 +13 1002.0 986.6
15 16.09 ЮВ 4 20 км 4/0
[Ac trans]
+8.5 +5.4 81 +5 +5 1001.5 985.8 +12.9 0.0
18 16.09 ЮВ 4 10 км ясно +7.4 +5.5 88 +4 +4 1000.6 984.8
21 16.09 ЮВ 4 10 км 3/0
[Ac trans]
+7.1 +5.8 91 +3 +3 998.8 983.0
00 17.09 Ю 4 10 км слаб. ливневой дождь 10/10 600 м
[Cb cap]
+7.3 +6.6 95 +4 +4 997.3 981.6
03 17.09 Ю 5 50 км {ливн. осадки} 8/8 300 м
[Cb calv]
+6.6 +6.2 97 +2 +2 995.9 980.2 +6.6 1
06 17.09 Ю 3 50 км {ливн. осадки} 10/10 600 м
[Cb cap]
+8.5 +7.4 93 +6 +6 995.5 979.9
09 17.09 ЮЗ 5 50 км 9/9 600 м
[Cb cap]
+11.1 +6.4 73 +8 +9 996.2 980.7
12 17.09 Ю 5 10 км слаб. ливневой дождь 9/8 600 м
[Cb cap Ac und]
+12.2 +7.0 71 +10 +10 997.0 981.6
15 17.09 Ю 4 10 км 3/0
[Ac und]
+10.0 +6.6 79 +7 +7 998.0 982.5 +13.6 0.3
18 17.09 Ю 4 10 км ясно +6.9 +5.3 90 +3 +3 998.6 982.8
21 17.09 Ю 5 10 км 9/0
[Ac und]
+7.1 +6.0 93 +3 +3 997.6 981.9
00 18.09 Ю 4 10 км 9/0
[Ac und]
+7.2 +6.1 93 +4 +4 997.3 981.6
03 18.09 Ю 4 50 км 9/3 600 м
[Sc Ac und]
+7.0 +6.3 95 +3 +3 997.2 981.5 +6.2
06 18.09 Ю 3 50 км {ливн. осадки} 8/4 600 м
[Cb calv Ci fib]
+9.4 +8.5 94 +7 +9 997.4 981.8
09 18.09 Ю 5-11
{12}
50 км 8/6 600 м
[Cu med, cong Ci fib]
+13.5 +7.9 69 +12 +13 997.2 981.8
12 18.09 ЮЗ 4-11
{12}
50 км гроза, ливневой дождь 8/4 600 м
[Cu med, cong Ci fib]
+12.6 +7.2 70 +11 +11 998.1 982.7
15 18.09 Ю 3 10 км 3/0 600 м
[Ac und]
+9.0 +5.9 81 +7 +7 998.5 982.8 +14.8 3
18 18.09 Ю 3 10 км 6/6 600 м
[Sc]
+8.2 +6.0 86 +5 +5 998.8 983.1
21 18.09 ЮВ 4 10 км 6/6 600 м
[Sc]
+6.8 +4.7 86 +3 +3 998.4 982.6
00 19.09 ЮВ 3 10 км 6/6 600 м
[Sc]
+5.6 +3.9 89 +2 +2 998.5 982.6
03 19.09 Ю 1 50 км 6/0
[Ac und]
+5.2 +4.0 92 +4 +4 997.9 982.0 +5.0
06 19.09 Ю 3 50 км 9/0
[Ac trans]
+10.2 +5.9 75 +8 +10 995.5 980.0
09 19.09 ЮВ 2 50 км 9/6 600 м
[Cb calv Ac trans]
+11.4 +5.3 66 +10 +12 994.0 978.5
12 19.09 СВ 2 50 км 9/9 600 м
[Cb calv]
+10.4 +5.6 72 +9 +9 990.7 975.3
15 19.09 С 6 10 км 9/9 600 м
[Cb calv]
+8.4 +6.7 89 +4 +4 987.8 972.3 +15.0
18 19.09 СЗ 6
{12}
10 км {ливн. осадки} 9/9 600 м
[Cb calv]
+7.3 +5.7 90 +3 +3 988.5 973.0
21 19.09 СЗ 7-10
{14}
10 км 9/0
[Ac As]
+6.4 +4.8 89 +1 +1 992.9 977.3
00 20.09 СЗ 6
{13}
10 км 6/0
[Ac und]
+5.1 +3.9 92 -0 -0 996.5 980.7
03 20.09 З 3 50 км 6/0
[Ac trans]
+3.7 +2.7 93 -0 -0 999.0 983.1 +1.0 0.0
06 20.09 СЗ 6-10
{12}
50 км 8/8 600 м
[Sc]
+16.1 -1.4 30 +15 +15 1002.4 986.5
09 20.09 З 6-10
{12}
50 км 8/8 600 м
[Sc]
+8.0 -4.0 42 +5 +5 1004.8 988.9
12 20.09 З 4
{10}
50 км 8/8 600 м
[Sc]
+7.6 -5.5 39 +5 +5 1007.6 991.7
15 20.09 З 3
{10}
10 км 6/0
[Ac trans]
+5.6 -3.5 52 +3 +3 1009.8 993.8 +8.0
18 20.09 Ю 3 10 км 3/0
[Ac trans]
+2.3 -3.3 66 -2 -2 1011.9 995.6
21 20.09 Ю 2 10 км ясно +2.0 -2.0 75 -1 -1 1013.2 996.9
00 21.09 Ю 2 10 км ясно +1.8 -1.0 82 -1 -1 1014.2 997.8
03 21.09 ЮВ 4 50 км 4/0
[Ci fib]
-1.2 -3.7 83 -7 -7 1014.8 998.3 -1.2
06 21.09 Ю 3 50 км 4/0
[Ci sp]
+5.5 -1.5 61 +3 +6 1014.5 998.4
09 21.09 Ю 5 50 км 8/3 600 м
[Sc Ac und]
+8.6 -1.3 50 +6 +6 1012.5 996.7
12 21.09 Ю 5 50 км 6/5 600 м
[Sc Ac und]
+9.5 -1.0 48 +7 +7 1010.4 994.6
15 21.09 ЮВ 6
{11}
10 км 1/1 600 м
[Sc]
+7.2 +1.0 65 +3 +3 1007.9 992.0 +10.2
18 21.09 ЮВ 5
{10}
10 км 6/0
[Ci fib]
+5.7 +1.4 74 +1 +1 1005.8 989.8
21 21.09 ЮВ 4 10 км 9/0
[Ac und]
+5.3 +3.1 86 +1 +1 1003.3 987.1
00 22.09 ЮВ 3 10 км слаб. ливневой дождь 10/10 600 м
[Cb cap]
+5.4 +4.5 94 +2 +2 1000.3 984.4
03 22.09 ЮВ 2 10 км слаб. ливневой дождь 10/10 600 м
[Cb cap]
+5.5 +4.8 95 +3 +3 997.7 981.9 +4.9 4
06 22.09 З 3 10 км слаб. ливневой дождь 10/10 600 м
[Cb cap]
+6.3 +5.6 95 +3 +3 995.0 979.3
09 22.09 З 7 10 км слаб. ливневой дождь 10/10 300 м
[Cb cap]
+5.5 +5.0 97 -0 -0 993.5 977.7

 

Местоположение метеостанции Гари (Свердловская область, Россия): широта 59.43 долгота 62.33 высота над уровнем моря 131 м.

В архиве по умолчанию представлена погода в Гарях за последнюю неделю. Архивные данные за месяц целиком и за предыдущие месяцы, начиная с января 2011 года, Вы можете получить, выбрав интересующий диапазон дат из раскрывающегося списка и нажав кнопку "Ввод!".


*Определитесь, кто Вы:
робот инопланетянин человек

Внимание! Время в таблицах - всемирное. Для получения местного времени необходимо прибавить поправку, которая равна 5 ч.

Смотрите также архив погоды в соседних городах и на ближайших метеорологических станциях:

Погода в Серове (Свердловская область, Россия) (103 км)
Погода в Верхотурье (Свердловская область, Россия) (108 км)
Погода в Карпинске (Свердловская область, Россия) (136 км)
Погода в Шаиме (Ханты-Мансийский АО, Россия) (145 км)
Погода в Североуральске (Свердловская область, Россия) (159 км)
Погода в Таборах (Свердловская область, Россия) (160 км)
Погода в Туринске (Свердловская область, Россия) (172 км)
Погода в Ивделе (Свердловская область, Россия) (174 км)
Погода в Кытлыме (Свердловская область, Россия) (176 км)
Погода в Алапаевске (Свердловская область, Россия) (177 км)

Пояснения к столбцам:

Ветер - указаны скорость ветра в м/с - средняя за 10 мин, порывы в срок и между сроками (в фигурных скобках) и направление, откуда дует ветер: С - северный, СВ - северо-восточный, В - восточный, ЮВ - юго-восточный, Ю - южный, ЮЗ - юго-западный, З - западный, СЗ - северо-западный.
Видимость - горизонтальная дальность видимости в метрах или километрах. При видимости от 1 до 10 км при отсутствии осадков обычно наблюдается дымка, при ухудшении видимости до 1 км и менее - туман. В сухую погоду видимость может ухудшаться дымом, пылью или мглою.
Явления - указаны атмосферные явления, наблюдавшиеся в срок или в последний час перед сроком; фигурными скобками обозначены явления, наблюдавшиеся между сроками (за 1-3 часа до срока); квадратными скобками обозначены град или гололедные отложения с указанием их диаметра в мм.
Облачность - указаны через наклонную черту общая и нижняя облачность в баллах и высота нижней границы облаков в метрах; квадратными скобками обозначены формы облаков: Ci - перистые, Cs - перисто-слоистые, Cc - перисто-кучевые, Ac - высококучевые, As - высокослоистые, Sc - слоисто-кучевые, Ns - слоисто-дождевые, Cu - кучевые, Cb - кучево-дождевые. Подробнее классификацию облаков см. в Атласе облаков (PDF).
T - Температура воздуха - температура, измеренная на высоте 2 м над землей.
Td - Температура точки росы - температура, при понижении до которой содержащийся в воздухе водяной пар достигнет насыщения.
f - Относительная влажность воздуха - влажноcть воздуха, измеренная на высоте 2 м над землей.
Te - Эффективная температура - температура, которую ощущает одетый по сезону человек в тени. Характеристика душности погоды. При расчете учитывается влияние влажности воздуха и скорости ветра на теплоощущения человека.
Tes - Эффективная температура на солнце - температура, которую ощущает человек, с поправкой на солнечный нагрев. Характеристика знойности погоды. Зависит от высоты солнца над горизонтом, облачности и скорости ветра. Ночью, в пасмурную погоду, а также при ветре 12 м/с и более поправка равна нулю.
P - Атмосферное давление - приведенное к уровню моря атмосферное давление.
Po - Атмосферное давление - измеренное на уровне метеостанции атмосферное давление.
Tmin - Минимальная температура - минимум температуры воздуха на высоте 2 м над землей.
Tmax - Максимальная температура - максимум температуры воздуха на высоте 2 м над землей.
R - Количество осадков - Количество выпавших осадков за период времени, мм. При наведении курсора мыши на число - период времени, за который выпало указанное количество осадков.
R24 - Количество осадков - Количество выпавших осадков за 24 часа, мм.
S - Снежный покров - Высота снежного покрова, см. При наведении курсора мыши на число - состояние снежного покрова и степень покрытия местности в баллах.